Regional Weather Roundup
Issued by NWS

Home | Current Version | Previous Version | Graphics & Text | Print | Product List | Glossary On
Versions: 1 2 3 4 5 6 7 8 9 10 11 12 13 14 15 16 17 18 19 20 21 22 23 24 25 26 27
000
ASUS45 KBOI 291610
RWRID

IDAHO REGIONAL WEATHER ROUNDUP
NATIONAL WEATHER SERVICE BOISE ID
1000 AM MDT SUN MAY 29 2016

NOTE: "FAIR" INDICATES FEW OR NO CLOUDS BELOW 12000 FEET
WITH NO SIGNIFICANT WEATHER AND/OR OBSTRUCTIONS TO VISIBILITY

IDZ012-014-291700-
SOUTHWEST IDAHO


CITY           SKY/WX    TMP DP  RH WIND       PRES   REMARKS
BOISE          SUNNY     67  32  27 SE12      30.04F
CALDWELL       SUNNY     65  37  35 E12       30.03F
MOUNTAIN HOME  SUNNY     66  41  40 SE14      30.06S
$$

IDZ016-017-291700-
SOUTHCENTRAL IDAHO


CITY           SKY/WX    TMP DP  RH WIND       PRES   REMARKS
BURLEY         MOSUNNY   57  43  59 VRB5      30.10S
JEROME         SUNNY     62  41  46 E10       30.10S
TWIN FALLS     SUNNY     61  35  37 NE5       30.10S
$$

IDZ019>023-291700-
SOUTHEAST IDAHO


CITY           SKY/WX    TMP DP  RH WIND       PRES   REMARKS
IDAHO FALLS    SUNNY     57  37  47 VRB3      30.14F
POCATELLO      SUNNY     59  40  49 E5        30.13F
REXBURG        SUNNY     55  36  48 CALM      30.15S
$$

IDZ006-010-011-018-031-032-291700-
CENTRAL IDAHO MOUNTAINS


CITY           SKY/WX    TMP DP  RH WIND       PRES   REMARKS
MCCALL         MOSUNNY   50  35  56 CALM      30.09S
HAILEY         SUNNY     55  30  38 NW9       30.15F
STANLEY          N/A     47  28  47 N3        30.18F
SALMON         SUNNY     52  36  54 CALM      30.10F
CHALLIS        SUNNY     54  31  41 CALM      30.12F
$$

IDZ002-004-006-007-026-291700-
NORTHERN IDAHO


CITY           SKY/WX    TMP DP  RH WIND       PRES   REMARKS
LEWISTON       MOSUNNY   57  45  64 VRB3      30.03S
LOWELL           N/A     56  44  64 CALM      30.05F
COEUR D`ALENE  SUNNY     59  45  58 SE10      29.98S
MULLAN PASS    MOSUNNY   47  34  60 VRB6      30.07S
$$




USA.gov is the U.S. government's official web portal to all federal, state and local government web resources and services.